{"data":{"norad_id":65493,"epoch":"2026-05-24T19:52:03.381888Z","epoch_age_seconds":87157,"freshness":"FRESH","line1":"1 65493U 25198B   26144.82781692  .00028118  00000+0  84058-3 0  9999","line2":"2 65493  53.1602 276.1816 0001268  86.3941 273.7207 15.34386064 40298","mean_motion":15.34386064,"eccentricity":0.0001268,"inclination_deg":53.1602,"raan_deg":276.1816,"arg_perigee_deg":86.3941,"mean_anomaly_deg":273.7207,"bstar":0.00084058,"rev_number":4029,"period_min":93.84861044984,"perigee_km":461.87723745484,"apogee_km":463.61208504413,"semimajor_km":6840.8816612495,"source":"CELESTRAK","updated_at":"2026-05-25T13:38:20.839557Z"}}